Hourly Data Report for January 23, 2022

TORONTO CITY
ONTARIO
Current Station Operator: ECCC - MSC

43°40'00.000" N
79°24'00.000" W
112.50 m
6158355
71508
XTO

Download Data

Hourly Data (January 2022)
Hourly Data Report for January 23, 2022
TIME
LST
Temp Definition
°C
Dew Point Definition
°C
Rel Hum Definition
%
Precip. Amount Definition
mm

Wind Dir Definition
10's deg

Wind Spd Definition
km/h
Visibility Definition
km
Stn Press Definition
kPa
Hmdx Definition


Wind Chill Definition


Weather Definition


00:00 -5.1 -8.7 76 0.0       99.85     LegendNANA
01:00 -4.4 -8.7 72 0.0       99.79     LegendNANA
02:00 -4.3 -8.7 72 0.0       99.76     LegendNANA
03:00 -4.4 -8.5 73 0.0       99.77     LegendNANA
04:00 -4.2 -9.2 69 0.0       99.72     LegendNANA
05:00 -4.4 -10.2 64 0.0       99.67     LegendNANA
06:00 -5.0 -9.6 70 0.0       99.67     LegendNANA
07:00 -5.8 -9.1 78 0.1       99.68     LegendNANA
08:00 -6.0 -10.2 72 0.0       99.69     LegendNANA
09:00 -5.9 -11.5 65 0.0       99.68     LegendNANA
10:00 -6.8 -10.9 73 0.0       99.70     LegendNANA
11:00 -8.0 -13.5 64 0.0       99.73     LegendNANA
12:00 -7.7 -15.4 54 0.0       99.67     LegendNANA
13:00 -8.0 -15.6 54 0.0       99.59     LegendNANA
14:00 -7.8 -15.9 52 0.0       99.57     LegendNANA
15:00 -7.9 -15.7 54 0.0       99.59     LegendNANA
16:00 -8.6 -16.6 52 0.0       99.65     LegendNANA
17:00 -10.3 -17.4 56 0.0       99.73     LegendNANA
18:00 -11.3 -17.3 61 0.0       99.84     LegendNANA
19:00 -11.9 -17.4 63 0.0       99.88     LegendNANA
20:00 -12.4 -17.4 66 0.0       99.94     LegendNANA
21:00 -12.5 -17.0 69 0.0       99.98     LegendNANA
22:00 -12.9 -17.0 71 0.0       100.00     LegendNANA
23:00 -13.3 -18.0 68 0.0       100.01     LegendNANA

Notes on Data Quality.

Legend

  • E = Estimated
  • M = Missing
  • NA = Not Available*
  • [empty] = Indicates an unobserved value
Date modified: